Regional Weather Roundup
Issued by NWS

Home | Current Version | Previous Version | Text Only | Print | Product List | Glossary Off
Versions: 1 2 3 4 5 6 7 8 9 10 11 12 13 14 15 16 17 18 19 20 21 22 23 24 25 26 27 28 29 30 31 32 33 34 35 36 37 38 39 40 41 42 43 44 45 46 47 48 49 50

000
ASUS45 KSLC 281810
RWRUT

UTAH REGIONAL WEATHER ROUNDUP
NATIONAL WEATHER SERVICE SALT LAKE CITY UT
1200 PM MDT TUE MAR 28 2017

UTZ001>011-023>025-281900-

NORTHERN UTAH

CITY           SKY/WX    TMP DP  RH WIND       PRES   REMARKS
BRIGHAM CITY     N/A     48  28  45 CALM      30.15S
DUGWAY         MOSUNNY   48  34  56 N16G22    30.16F
HILL AFB       MOSUNNY   46  29  52 NW10      30.13F
LOGAN          SUNNY     48  33  56 N10       30.15F
OGDEN          SUNNY     46  32  58 NW10      30.13F
SALT LAKE CITY MOSUNNY   48  34  58 NW7G18    30.14S
TOOELE VALLEY  SUNNY     46  34  61 N13       30.17S
WENDOVER       NOT AVBL
HEBER CITY     PTSUNNY   46  28  49 N15       30.09S
WEST JORDAN    SUNNY     49  42  78 NW21      30.13F

$$

UTZ011>015-024>027-281900-

CENTRAL/NORTHEAST UTAH

CITY           SKY/WX    TMP DP  RH WIND       PRES   REMARKS
PROVO AIRPORT  PTSUNNY   48  35  60 N16       30.12F
MOAB/CANYONLAN CLOUDY    53  37  54 E6        29.92R
DELTA          CLOUDY    41  30  65 NW6       30.16S
PRICE          PTSUNNY   47  32  56 NW21G29   29.99R
RICHFIELD      CLOUDY    43  32  65 S5        30.15R
ROOSEVELT      CLOUDY    50  34  53 CALM      29.99S
VERNAL         CLOUDY    53  30  41 N14       29.97R

$$

UTZ013>016-019>022-027-281900-

SOUTHERN UTAH

CITY           SKY/WX    TMP DP  RH WIND       PRES   REMARKS
BRYCE CANYON   MOSUNNY   41  25  53 N22       30.04S
CEDAR CITY     CLOUDY    38  29  70 NE14      30.13R WCI  30
MILFORD        PTSUNNY   43  31  62 NE21      30.15S
ST GEORGE      PTCLDY    58  25  28 NW6       30.05R
HANKSVILLE     PTSUNNY   54  28  37 W5        29.97S
KANAB          SUNNY     54  25  32 N17G28    30.04F
BLANDING       CLOUDY    48  40  75 S5        29.96F

$$

REGIONAL REPORTS     COLORADO/ARIZONA

CITY           SKY/WX    TMP DP  RH WIND       PRES   REMARKS
CRAIG, CO      LGT RAIN  37  34  89 SW10      29.94S WCI  30
GRAND JUNCTION LGT RAIN  48  41  76 NW12      29.91S
RIFLE, CO      LGT RAIN  49  36  61 W12       29.90S
MONTROSE, CO   CLOUDY    43  39  86 NW10      29.92S
CORTEZ, CO     PTSUNNY   46  38  73 VRB3      29.87F
COLORADO CITY    N/A     54  27  35 NW10G18   30.05S
PAGE, AZ       CLOUDY    55  27  34 NW6       29.94S
GRAND CANYON   MOSUNNY   47  26  44 N8        29.99S
KINGMAN, AZ    SUNNY     58  13  17 N14G24    30.03R
FLAGSTAFF, AZ  PTSUNNY   44  26  49 NE8       29.96R

$$

REGIONAL REPORTS    NEVADA/IDAHO/WYOMING

CITY           SKY/WX    TMP DP  RH WIND       PRES   REMARKS
LAS VEGAS, NV  MOSUNNY   63  18  17 NW15G28   30.08S
ELY, NY        SUNNY     39  23  52 N14G23    30.19F WCI  31
ELKO, NV       PTSUNNY   45  23  42 VRB5      30.25S
POCATELLO, ID  MOSUNNY   42  30  62 W9        30.22R
BURLEY, ID     SUNNY     45  29  53 W14G24    30.22R
FORT BRIDGER,  MOCLDY    39  34  82 NW10      30.12S WCI  32
EVANSTON, WY   MOSUNNY   37  27  67 N18       30.10S WCI  27
ROCK SPRINGS,  HVY SNOW  33  31  92 NW10      30.07R VSB 1/4 WCI  25
KEMMERER, WY     N/A     36  28  75 W13       30.10R WCI  27

$$



USA.gov is the U.S. government's official web portal to all federal, state and local government web resources and services.